COSMOS 1275 DEB, 17635

Orbit data source: Space-Track

COSMOS 1275 DEB, 17635 is space debris in LEO originally from a launch on Thu, 04 Jun 1981 UTC launched from the Plesetsk Missile And Space Complex (PKMTR). Debris objects in space refer to the collection of defunct objects orbiting the Earth. Examples of debris include non-operational satellites, rocket bodies, and fragments generated from explosions, collisions, or faulty payload assembly.

Loading next visibility...
Identifier
17635, 1981-053LE
Orbit
LEO
Country
Flag of CISCIS
Related business
Manufacturer
Unknown
Mission
Spacecraft
Bus & Motor
Unknown
Mass
Unknown
Launch date (UTC)
1981-06-04 (45 years ago)
Launch vehicle
Unknown
Launch site
Plesetsk Missile And Space Complex (PKMTR)
Object type
Payload
Rocket body
Debris
Shape & HBR
Unknown shape, 0.1 m
Radar Cross Section
Medium (>0.1 m² and <1 m²)

Expand to show TLE details & history
Last TLE update: 1 day ago

TLE from 1 day ago
0 COSMOS 1275 DEB
1 17635U 81053LE  26264.10292348  .00001639  00000-0  70223-3 0  9994
2 17635  82.8201 302.1083 0032801 349.3513  10.6971 14.24082561111824
Epoch: 2026-09-21T02:28Z
TLE epoch observation values (Epoch: 2026-09-21T02:28:12.588Z)
Latitude
-0.00007°
Longitude
-94.93172°
Altitude
791.369 km
Speed
7.47 km/s
True Right ascension
20h 08m 25s
True Declination
0° 00' 00"
Sunlit
Object was in full shadow at epoch
Visualization orbit readout
Latitude
Unknown
Longitude
Unknown
Altitude
Unknown
Speed
Unknown
Apparent Right ascension
Unknown
Apparent Declination
Unknown
Sunlit
N/A
Visualization observer readout
Local Sidereal Time
00:50:52
Azimuth
Unknown
Elevation
Unknown
Doppler factor
Unknown
Orbital elements
Apogee altitude
832.238 km
Perigee altitude
785.091 km
Semi-major axis
7,186.802 km
Eccentricity
0.00328
Inclination
82.8201°
RAAN
302.1083°
Arg. of periapsis
349.3513°
True anomaly
10.76715°
Mean anomaly
10.6971°
Eccentric anomaly
10.7321°
Mean motion
3.56238 °/min
Orbital period
101.06 mins
BSTAR
0.00070223
Loading maneuver chart data...
Computing Atmospheric mass density...

Documentation

Showing up to 5 results
|